Massena, NY

1:27 AM EDT on May 22, 2018 (GMT -0400)
Massena International-Richards

Weather History for KMSS - December, 2011

Change the Weather History Date:

Tuesday, December 27, 2011

  Actual Average Record
Temperature  
Mean Temperature 32 °F 18 °F  
Max Temperature 39 °F 27 °F 54 °F (2008)
Min Temperature 25 °F 9 °F -25 °F (1989)
Degree Days  
Heating Degree Days 33 47  
Month to date heating degree days 862 1137  
Since 1 July heating degree days 2154 2906  
Moisture  
Dew Point 29 °F    
Average Humidity 81    
Maximum Humidity 92    
Minimum Humidity 70    
Precipitation  
Precipitation 0.30 in 0.07 in 1.15 in (1969)
Month to date precipitation 2.30 2.14  
Year to date precipitation 31.18 34.67  
Sea Level Pressure  
Sea Level Pressure 29.64 in    
Wind  
Wind Speed 7 mph (East)    
Max Wind Speed 21 mph    
Max Gust Speed 28 mph    
Visibility 9 miles    
Events Rain    
T = Trace of Precipitation, MM = Missing Value Source: NWS Daily Summary

Daily Weather History Graph

Daily Weather History Graph

Search for Another Location

Airport or City:

Astronomy

Dec. 27, 2011 Rise Set
Actual Time 7:36 AM EST 4:24 PM EST
Civil Twilight 7:02 AM EST 4:58 PM EST
Nautical Twilight 6:25 AM EST 5:35 PM EST
Astronomical Twilight 5:49 AM EST 6:10 PM EST
Moon 9:22 AM EST (12/27) 8:03 PM EST (12/27)
Length of Visible Light 9h 55m
Length of Day
8h 47m
Waxing Crescent, 11% of the Moon is Illuminated
Dec 27
Waxing Crescent
Jan 1
First Quarter
Jan 9
Full
Jan 16
Last Quarter
Jan 23
New

Hourly Weather History & Observations

Time (EST) Temp. Windchill Dew Point Humidity Pressure Visibility Wind Dir Wind Speed Gust Speed Precip Events Conditions
12:53 AM 30.9 °F 22.8 °F 26.1 °F 82% 30.01 in 10.0 mi South 9.2 mph - N/A   Clear
1:53 AM 30.9 °F 22.2 °F 26.1 °F 82% 29.98 in 10.0 mi South 10.4 mph - N/A   Clear
2:53 AM 34.0 °F 24.6 °F 26.1 °F 73% 29.97 in 10.0 mi SSW 13.8 mph - N/A   Clear
3:53 AM 34.0 °F 25.0 °F 26.1 °F 73% 29.95 in 10.0 mi SSW 12.7 mph - N/A   Clear
4:53 AM 32.0 °F 24.8 °F 25.0 °F 75% 29.92 in 10.0 mi South 8.1 mph - N/A   Clear
5:53 AM 30.9 °F 25.2 °F 24.1 °F 76% 29.88 in 10.0 mi South 5.8 mph - N/A   Clear
6:53 AM 30.9 °F 23.5 °F 23.0 °F 72% 29.86 in 10.0 mi South 8.1 mph - N/A   Clear
7:53 AM 30.0 °F - 23.0 °F 75% 29.85 in 10.0 mi Calm Calm - N/A   Clear
8:53 AM 27.0 °F - 23.0 °F 85% 29.85 in 10.0 mi Calm Calm - N/A   Clear
9:53 AM 33.1 °F - 26.1 °F 75% 29.85 in 10.0 mi Calm Calm - N/A   Clear
10:53 AM 34.0 °F - 26.1 °F 73% 29.80 in 10.0 mi Calm Calm - N/A   Clear
11:53 AM 35.1 °F 31.0 °F 28.0 °F 76% 29.73 in 10.0 mi ENE 4.6 mph - N/A   Partly Cloudy
12:53 PM 36.0 °F 31.1 °F 28.9 °F 76% 29.70 in 10.0 mi ENE 5.8 mph - N/A   Mostly Cloudy
1:53 PM 37.0 °F 34.5 °F 28.9 °F 73% 29.69 in 10.0 mi NNE 3.5 mph - N/A   Overcast
2:53 PM 37.0 °F 33.3 °F 28.9 °F 73% 29.67 in 10.0 mi ENE 4.6 mph - N/A   Mostly Cloudy
3:53 PM 37.0 °F 33.3 °F 28.9 °F 73% 29.63 in 10.0 mi East 4.6 mph - N/A   Overcast
4:53 PM 37.9 °F 34.4 °F 32.0 °F 79% 29.60 in 10.0 mi SSE 4.6 mph - 0.01 in Rain Light Rain
5:53 PM 35.1 °F 32.2 °F 32.0 °F 89% 29.56 in 10.0 mi East 3.5 mph - 0.00 in   Overcast
6:04 PM 35.6 °F 31.7 °F 32.0 °F 87% 29.53 in 7.0 mi East 4.6 mph - 0.00 in Rain Light Rain
6:53 PM 35.1 °F 27.9 °F 33.1 °F 92% 29.49 in 5.0 mi ENE 9.2 mph - 0.09 in Rain Rain
7:53 PM 36.0 °F 26.3 °F 34.0 °F 93% 29.39 in 4.0 mi NE 16.1 mph 20.7 mph 0.12 in Rain Rain
8:22 PM 35.6 °F 25.2 °F 33.8 °F 93% 29.33 in 6.0 mi ENE 18.4 mph 27.6 mph 0.04 in Rain Light Rain
8:45 PM 35.6 °F 28.6 °F 33.8 °F 93% 29.32 in 10.0 mi ENE 9.2 mph - 0.05 in Rain Light Rain
8:53 PM 36.0 °F 30.3 °F 35.1 °F 97% 29.34 in 10.0 mi NNE 6.9 mph - 0.05 in   Overcast
9:01 PM 35.6 °F 28.0 °F 33.8 °F 93% 29.31 in 10.0 mi NE 10.4 mph - 0.00 in   Overcast
9:53 PM 35.1 °F 27.4 °F 33.1 °F 92% 29.27 in 4.0 mi NNE 10.4 mph - 0.00 in   Overcast
10:53 PM 35.1 °F 28.6 °F 34.0 °F 96% 29.23 in 5.0 mi NE 8.1 mph - 0.01 in Rain Light Rain
11:53 PM 35.1 °F 30.1 °F 34.0 °F 96% 29.21 in 3.0 mi East 5.8 mph - 0.01 in Rain Light Rain